[[{"header":{"parameterUnit":"m.s-1","parameterCategory":1,"la1":30.2991,"la2":30.254,"lo1":-89.0895,"lo2":-89.0444,"dy":0.0017,"dx":0.0017,"nx":28,"ny":28,"refTime":"2023-09-15T21:00:00:Z","depth":0,"parameterNumber":2,"parameterNumberName":"U-component_of_WINDS"},"data":[0,0,0,0,0,0,0,0,0,0,0,0,0,0,0,0,0,0,0,0,0,0,0,0,0,0,0,0,0,0,0,0,0,0,0,0,0,0,0,0,0,0,0,0,0,0,0,0,0,0,0,0,0,0,0,0,0,0,0.4532,0.4532,0,0.4518,0.4518,0.4518,0.4518,0.4518,0.4518,0.4518,0.4503,0.4502,0.4502,0,0,0,0,0,0,0,0,0,0,0,0,0,0.4557,0.4557,0.4532,0.4532,0.4532,0.4518,0.4518,0.4518,0.4518,0.4518,0.4518,0.4518,0.4503,0.4503,0.4502,0,0,0,0,0,0,0,0,0,0,0,0,0,0.4545,0.4556,0.4532,0.453,0.453,0.4518,0.4518,0.4518,0.4518,0.4518,0.4518,0.4518,0.4503,0.4503,0.4502,0.4491,0,0,0.4499,0.4499,0,0,0,0,0,0,0,0,0.4546,0.4544,0.4531,0.453,0.453,0.452,0.4521,0.4509,0.4518,0.4522,0.4518,0.4519,0.4508,0.4507,0.4504,0.449,0.449,0.4499,0.4498,0.4498,0.4498,0,0,0,0,0,0,0,0.4547,0.4545,0.4527,0.4531,0.453,0.4529,0.4528,0.4519,0.4514,0.4522,0.4522,0.452,0.4508,0.4505,0.4504,0.4489,0.4499,0.4498,0.4498,0.4497,0.4464,0.4464,0,0,0,0,0,0,0.4548,0.4545,0.4527,0.4526,0.4539,0.4529,0.4527,0.4523,0.4514,0.4513,0.452,0.452,0.4506,0.4505,0.4503,0.4489,0.4498,0.4497,0.4497,0.4465,0.4464,0.4464,0,0,0,0,0,0,0.4549,0.4546,0.4528,0.4536,0.4533,0.4528,0.4523,0.4523,0.4519,0.4513,0.4512,0.4518,0.4506,0.4504,0.4494,0.4488,0.4497,0.4496,0.4465,0.4465,0.4464,0.4461,0,0,0,0,0,0,0.4549,0.4547,0.4543,0.4536,0.4533,0.4519,0.4523,0.4522,0.4518,0.4518,0.451,0.4509,0.4506,0.4495,0.4493,0.4487,0.4495,0.4466,0.4465,0.4464,0.4462,0.4461,0.446,0,0,0,0,0,0.455,0.4543,0.4543,0.4541,0.4529,0.4519,0.4517,0.4515,0.4517,0.4513,0.4509,0.4509,0.4489,0.4494,0.4491,0.4486,0.4466,0.4465,0.4464,0.4462,0.4461,0.446,0,0,0,0,0,0,0.455,0.4542,0.4542,0.4532,0.4526,0.4519,0.4514,0.4514,0.4507,0.4507,0.4504,0.4502,0.4491,0.4487,0.4493,0.4474,0.4478,0.4476,0.4477,0.4476,0.4475,0.4476,0.4495,0,0,0,0,0,0.4549,0.4542,0.4536,0.4528,0.4525,0.452,0.4516,0.4514,0.4508,0.4505,0.45,0.4493,0.4485,0.448,0.4473,0.4461,0.4459,0.4456,0.4455,0.4454,0.4453,0.4445,0.4443,0.4461,0.4461,0.4461,0,0,0.4547,0.4541,0.4538,0.4527,0.4523,0.4515,0.4518,0.451,0.4504,0.4504,0.4494,0.4489,0.4481,0.447,0.4465,0.4466,0.4447,0.4453,0.4452,0.4452,0.4444,0.4442,0.4441,0.4461,0.4461,0.4461,0,0,0.4539,0.4534,0.4527,0.4522,0.4514,0.4511,0.4509,0.4501,0.4498,0.4488,0.4487,0.4479,0.4466,0.446,0.4455,0.4443,0.4443,0.444,0.4435,0.4428,0.4426,0.4425,0.442,0.4418,0.4439,0.4439,0.4439,0,0.4537,0.4526,0.4523,0.4515,0.451,0.4509,0.45,0.4495,0.4486,0.4482,0.4484,0.4466,0.4461,0.4448,0.4444,0.4441,0.4438,0.4442,0.4427,0.4425,0.4424,0.4419,0.4417,0.4439,0.4439,0.4439,0.4439,0,0.4523,0.4516,0.4511,0.4501,0.4495,0.4488,0.4482,0.4477,0.4475,0.4471,0.4459,0.4453,0.4443,0.444,0.4438,0.4425,0.4427,0.4428,0.4431,0.4422,0.4418,0.4416,0.4439,0.4439,0.4439,0.4439,0,0,0.4516,0.4504,0.4502,0.4497,0.4488,0.4482,0.4473,0.4464,0.4459,0.4451,0.4443,0.4431,0.4432,0.4426,0.4423,0.4417,0.4406,0.4419,0.4418,0.4416,0.439,0.439,0.4388,0.4405,0.4405,0.4405,0.4391,0,0.4507,0.4492,0.4488,0.4475,0.4467,0.4465,0.4457,0.445,0.4445,0.4437,0.4432,0.4423,0.4425,0.4422,0.4415,0.4409,0.4401,0.441,0.4397,0.4397,0.44,0.4385,0.4385,0.4373,0.4389,0.4389,0.4389,0,0.4495,0.4487,0.4473,0.4464,0.446,0.4453,0.4444,0.4436,0.4428,0.4425,0.4418,0.4415,0.4405,0.4408,0.4393,0.4399,0.4393,0.4389,0.4389,0.4388,0.4393,0.4384,0.4369,0.4367,0.4386,0.4386,0.4386,0,0.4491,0.4477,0.4466,0.4462,0.4451,0.4446,0.4441,0.4432,0.4426,0.4417,0.4413,0.4403,0.4398,0.4389,0.4384,0.4387,0.4368,0.4372,0.4365,0.4365,0.4362,0.4362,0.4345,0.4358,0.4358,0.4358,0.4358,0,0.4481,0.4472,0.4464,0.4458,0.4447,0.4442,0.4432,0.4427,0.4419,0.4411,0.4407,0.44,0.4392,0.4383,0.4378,0.4366,0.4364,0.436,0.4359,0.4361,0.4361,0.4357,0.4358,0.4357,0.4357,0.4358,0.4358,0,0.4475,0.4469,0.4457,0.4447,0.4444,0.4437,0.4428,0.4421,0.4416,0.4405,0.4402,0.4394,0.4383,0.4376,0.4362,0.4358,0.4344,0.4344,0.4348,0.4347,0.434,0.4341,0.4321,0.4317,0.4332,0.4332,0.4332,0,0.4469,0.4463,0.4451,0.4446,0.444,0.4431,0.4425,0.4419,0.4413,0.4401,0.4395,0.4384,0.4374,0.4356,0.4348,0.4337,0.4336,0.4329,0.4334,0.4335,0.4335,0.4336,0.4335,0.4329,0.4329,0.4329,0.4328,0,0.446,0.4457,0.4448,0.4438,0.4431,0.4422,0.4414,0.4409,0.4401,0.4394,0.4382,0.4375,0.436,0.4348,0.4336,0.433,0.4327,0.4327,0.4324,0.4326,0.4329,0.4327,0.4345,0.4327,0.4328,0.4328,0.4328,0.4328,0.4454,0.4447,0.4438,0.4428,0.4421,0.4413,0.4405,0.4399,0.4389,0.4377,0.4373,0.4361,0.435,0.4334,0.4327,0.4316,0.4317,0.4314,0.4313,0.4313,0.4312,0.433,0.4314,0.4314,0.4314,0.4314,0.4314,0,0.4444,0.4437,0.4428,0.4416,0.4408,0.4406,0.4396,0.439,0.4379,0.4369,0.436,0.4346,0.4334,0.4324,0.4312,0.4305,0.4304,0.4302,0.4303,0.4301,0.4312,0.4315,0.4303,0.4303,0.4303,0.4303,0.4303,0.4303,0.4438,0.4426,0.4422,0.4406,0.44,0.4388,0.4382,0.4374,0.4366,0.4351,0.4341,0.4335,0.4325,0.4311,0.43,0.4297,0.4292,0.4291,0.4288,0.4299,0.43,0.4301,0.4304,0.429,0.429,0.4278,0.4277,0.4277]},{"header":{"parameterUnit":"m.s-1","parameterCategory":1,"la1":30.2991,"la2":30.254,"lo1":-89.0895,"lo2":-89.0444,"dy":0.0017,"dx":0.0017,"nx":28,"ny":28,"refTime":"2023-09-15T21:00:00:Z","depth":0,"parameterNumber":3,"parameterNumberName":"V-component_of_WINDS"},"data":[0,0,0,0,0,0,0,0,0,0,0,0,0,0,0,0,0,0,0,0,0,0,0,0,0,0,0,0,0,0,0,0,0,0,0,0,0,0,0,0,0,0,0,0,0,0,0,0,0,0,0,0,0,0,0,0,0,0,0.4133,0.4133,0,0.4111,0.4111,0.411,0.4158,0.416,0.4161,0.4163,0.4136,0.4134,0.4131,0,0,0,0,0,0,0,0,0,0,0,0,0,0.4214,0.4212,0.4133,0.4133,0.4133,0.4111,0.4111,0.411,0.4158,0.416,0.4161,0.4163,0.4136,0.4134,0.4131,0,0,0,0,0,0,0,0,0,0,0,0,0,0.4184,0.4212,0.4133,0.4154,0.4156,0.4111,0.4111,0.411,0.4157,0.416,0.4162,0.4164,0.4137,0.4134,0.4131,0.4064,0,0,0.4121,0.412,0,0,0,0,0,0,0,0,0.4185,0.4181,0.4151,0.4152,0.4154,0.414,0.4129,0.4095,0.4157,0.4156,0.4163,0.4165,0.4135,0.4132,0.4123,0.4063,0.4062,0.4121,0.4119,0.4117,0.4116,0,0,0,0,0,0,0,0.4187,0.4182,0.4124,0.4151,0.4152,0.4163,0.4161,0.4123,0.4133,0.4157,0.416,0.4157,0.4136,0.4126,0.4122,0.4061,0.4121,0.4118,0.4116,0.4115,0.3945,0.3942,0,0,0,0,0,0,0.4187,0.4183,0.4125,0.4124,0.4176,0.416,0.4158,0.4142,0.4133,0.4134,0.4155,0.4159,0.413,0.4126,0.4121,0.4041,0.4117,0.4114,0.4112,0.3947,0.3944,0.3941,0,0,0,0,0,0,0.4189,0.4182,0.4126,0.4155,0.4148,0.4156,0.4138,0.414,0.413,0.4132,0.4134,0.4143,0.4132,0.4126,0.4078,0.4041,0.4113,0.411,0.395,0.3946,0.3943,0.3881,0,0,0,0,0,0,0.4191,0.4182,0.4157,0.4154,0.4147,0.4084,0.4135,0.4138,0.4124,0.413,0.4121,0.4122,0.4133,0.4083,0.4075,0.4038,0.4107,0.3954,0.3949,0.3944,0.3886,0.3875,0.3866,0,0,0,0,0,0.4194,0.414,0.4156,0.4149,0.4116,0.4082,0.4077,0.4093,0.4121,0.4096,0.4098,0.4122,0.4047,0.4077,0.4069,0.403,0.3956,0.395,0.3944,0.3891,0.3878,0.3866,0,0,0,0,0,0,0.4138,0.414,0.4157,0.4102,0.4091,0.409,0.4058,0.4078,0.4058,0.4064,0.4083,0.4081,0.4028,0.4025,0.4059,0.3965,0.4006,0.3998,0.3968,0.3956,0.3946,0.3946,0.4105,0,0,0,0,0,0.412,0.4093,0.4096,0.4046,0.404,0.405,0.4035,0.4048,0.4038,0.4033,0.4031,0.4019,0.3993,0.3975,0.3951,0.3887,0.3885,0.3857,0.3847,0.3838,0.383,0.3795,0.3782,0.3922,0.3922,0.3923,0,0,0.408,0.4078,0.406,0.4035,0.4028,0.3998,0.4046,0.4012,0.3989,0.4028,0.3982,0.398,0.3968,0.3911,0.3886,0.3907,0.3792,0.3831,0.3824,0.3821,0.3787,0.3774,0.3762,0.3918,0.3919,0.392,0,0,0.3993,0.399,0.3947,0.394,0.393,0.3937,0.3927,0.3923,0.3923,0.3878,0.3906,0.3879,0.3834,0.3823,0.3812,0.3722,0.3743,0.3714,0.366,0.3625,0.3614,0.3604,0.3569,0.3557,0.3707,0.3706,0.3706,0,0.3945,0.3902,0.3922,0.3887,0.3874,0.3909,0.3865,0.3857,0.3839,0.3829,0.3853,0.3797,0.3791,0.3732,0.371,0.37,0.3688,0.3713,0.3614,0.3605,0.3596,0.3563,0.355,0.3703,0.3703,0.3704,0.3704,0,0.3842,0.3812,0.3778,0.3761,0.3745,0.3705,0.3719,0.37,0.3715,0.3719,0.3672,0.3667,0.3642,0.363,0.3644,0.3572,0.3585,0.3612,0.3653,0.3578,0.3547,0.3535,0.3698,0.3699,0.37,0.3701,0,0,0.3716,0.3712,0.3699,0.3691,0.3683,0.3659,0.3621,0.3598,0.358,0.3568,0.3534,0.3496,0.3521,0.3508,0.3521,0.3491,0.3417,0.3521,0.3521,0.3499,0.3335,0.3313,0.3298,0.3433,0.343,0.3428,0.3335,0,0.3627,0.3562,0.358,0.3514,0.3485,0.3519,0.3486,0.3476,0.348,0.3455,0.3459,0.343,0.3466,0.3458,0.3431,0.3432,0.3384,0.344,0.3399,0.3398,0.3398,0.3283,0.3259,0.3171,0.3324,0.3322,0.332,0,0.3514,0.3497,0.3429,0.3426,0.3414,0.3384,0.3363,0.334,0.333,0.3335,0.3321,0.3341,0.3302,0.3346,0.3292,0.3329,0.3314,0.3313,0.331,0.3303,0.3352,0.327,0.3144,0.3129,0.3302,0.3304,0.3305,0,0.3425,0.3386,0.334,0.3333,0.3328,0.3305,0.3302,0.3295,0.328,0.3263,0.3252,0.3231,0.3217,0.3199,0.3212,0.3244,0.3154,0.32,0.3155,0.3154,0.3132,0.3132,0.2997,0.3127,0.3128,0.3128,0.3128,0,0.3322,0.3278,0.33,0.3271,0.3222,0.3244,0.3195,0.3195,0.3189,0.316,0.3189,0.316,0.318,0.3153,0.3163,0.3115,0.311,0.3111,0.3113,0.3106,0.3106,0.3094,0.3099,0.3124,0.3125,0.3126,0.3126,0,0.3213,0.3226,0.3177,0.3178,0.3177,0.3141,0.3141,0.3113,0.312,0.3083,0.3075,0.3085,0.3055,0.3067,0.3035,0.3041,0.2979,0.2991,0.2982,0.2984,0.2937,0.294,0.2787,0.2767,0.2913,0.2911,0.291,0,0.3144,0.3111,0.3109,0.3092,0.3087,0.306,0.3045,0.3065,0.3048,0.3035,0.3008,0.2981,0.296,0.291,0.2913,0.2889,0.2899,0.2847,0.2895,0.2889,0.2894,0.2895,0.2891,0.2836,0.2835,0.2833,0.2832,0,0.3021,0.3029,0.3007,0.2987,0.2968,0.2953,0.294,0.2925,0.2944,0.2923,0.2894,0.2878,0.2846,0.2817,0.2796,0.2792,0.2814,0.2818,0.2805,0.2796,0.2791,0.279,0.2952,0.282,0.2821,0.2822,0.2823,0.2823,0.2928,0.29,0.2893,0.2867,0.286,0.2848,0.2822,0.2826,0.2802,0.2778,0.2792,0.2756,0.2747,0.2721,0.2713,0.2685,0.2705,0.2688,0.2683,0.2678,0.267,0.2799,0.2682,0.2682,0.2683,0.2683,0.2683,0,0.2803,0.2801,0.2777,0.2759,0.2738,0.2764,0.2752,0.2732,0.2701,0.2692,0.2671,0.2636,0.2609,0.2611,0.2586,0.2563,0.2573,0.2556,0.2556,0.2554,0.2655,0.2667,0.2548,0.2548,0.2548,0.2548,0.2548,0.2548,0.2735,0.2688,0.2696,0.2646,0.2644,0.2611,0.2601,0.2589,0.2581,0.2542,0.252,0.2522,0.2517,0.2492,0.2468,0.2469,0.2457,0.2436,0.244,0.2534,0.2547,0.256,0.2571,0.2434,0.2433,0.2341,0.234,0.234]}]]